Springfield, VT

3:27 PM EST on November 21, 2019 (GMT -0500)
Hartness State

Weather History for KVSF - October, 2019

Change the Weather History Date:

Tuesday, October 22, 2019

  Actual Average Record
Temperature  
Mean Temperature 48 °F 45 °F  
Max Temperature 59 °F 56 °F 81 °F (2007)
Min Temperature 37 °F 34 °F 22 °F (2018)
Degree Days  
Heating Degree Days 17 20  
Month to date heating degree days 348 365  
Since 1 July heating degree days 561 617  
Cooling Degree Days 0 0  
Month to date cooling degree days 0 0  
Year to date cooling degree days 409 344  
Moisture  
Dew Point 42 °F    
Average Humidity 88    
Maximum Humidity 100    
Minimum Humidity 49    
Precipitation  
Precipitation 0.01 in 0.15 in 0.43 in (2005)
Month to date precipitation 1.60 3.38  
Year to date precipitation 28.30 35.51  
Sea Level Pressure  
Sea Level Pressure 30.10 in    
Wind  
Wind Speed 1 mph ()    
Max Wind Speed 13 mph    
Max Gust Speed 22 mph    
Visibility 6.8 miles    
Events Fog , Rain    
T = Trace of Precipitation, MM = Missing Value Source: Averaged Metar Reports

Daily Weather History Graph

Daily Weather History Graph

Search for Another Location

Airport or City:

Astronomy

Oct. 22, 2019 Rise Set
Actual Time 7:12 AM EDT 5:56 PM EDT
Civil Twilight 6:43 AM EDT 6:25 PM EDT
Nautical Twilight 6:09 AM EDT 6:58 PM EDT
Astronomical Twilight 5:36 AM EDT 7:31 PM EDT
Moon 12:04 AM EDT (10/22) 3:16 PM EDT (10/22)
Length of Visible Light 11h 42m
Length of Day
10h 43m
Last Quarter, 37% of the Moon is Illuminated
Oct 22
Last Quarter
Oct 27
New
Nov 4
First Quarter
Nov 12
Full
Nov 19
Last Quarter

Hourly Weather History & Observations

Time (EDT) Temp. Windchill Dew Point Humidity Pressure Visibility Wind Dir Wind Speed Gust Speed Precip Events Conditions
12:32 AM 37.9 °F - 37.0 °F 97% 30.18 in 0.5 mi Calm Calm - N/A Fog Fog
12:39 AM 37.0 °F - 37.0 °F 100% 30.19 in 0.2 mi Calm Calm - N/A Fog Fog
12:54 AM 37.0 °F - 37.0 °F 100% 30.20 in 0.2 mi Calm Calm - N/A Fog Fog
1:07 AM 37.0 °F - 37.0 °F 100% 30.18 in 0.8 mi Calm Calm - N/A   Mist
1:14 AM 37.0 °F - 36.0 °F 96% 30.18 in 1.2 mi Calm Calm - N/A   Overcast
1:54 AM 37.0 °F - 36.0 °F 96% 30.19 in 1.5 mi Calm Calm - N/A   Overcast
2:02 AM 37.0 °F - 36.0 °F 96% 30.18 in 2.5 mi Calm Calm - N/A   Overcast
2:46 AM 37.0 °F 33.3 °F 36.0 °F 96% 30.18 in 1.8 mi NE 4.6 mph - N/A   Mostly Cloudy
3:06 AM 37.9 °F 35.5 °F 37.0 °F 97% 30.18 in 8.0 mi NNW 3.5 mph - N/A   Scattered Clouds
3:42 AM 37.0 °F - 36.0 °F 96% 30.16 in 7.0 mi Calm Calm - N/A   Mostly Cloudy
3:54 AM 37.0 °F - 37.0 °F 100% 30.18 in 9.0 mi Calm Calm - N/A   Mostly Cloudy
4:12 AM 37.9 °F - 36.0 °F 93% 30.16 in 10.0 mi Calm Calm - N/A   Scattered Clouds
4:54 AM 37.9 °F - 37.0 °F 97% 30.16 in 10.0 mi Calm Calm - N/A   Partly Cloudy
5:54 AM 37.9 °F 32.7 °F 37.0 °F 97% 30.17 in 10.0 mi NE 6.9 mph - N/A   Clear
6:54 AM 37.9 °F - 37.9 °F 100% 30.17 in 9.0 mi Calm Calm - N/A   Clear
7:54 AM 39.0 °F 36.8 °F 37.9 °F 96% 30.19 in 9.0 mi ENE 3.5 mph - N/A   Clear
8:54 AM 42.1 °F - 39.9 °F 92% 30.17 in 10.0 mi Calm Calm - N/A   Clear
9:14 AM 43.0 °F - 41.0 °F 93% 30.15 in 10.0 mi Calm Calm - N/A   Partly Cloudy
9:54 AM 46.0 °F - 43.0 °F 89% 30.14 in 10.0 mi Calm Calm - N/A   Clear
10:54 AM 53.1 °F - 44.1 °F 71% 30.12 in 10.0 mi Calm Calm - N/A   Clear
11:54 AM 55.9 °F - 44.1 °F 64% 30.12 in 10.0 mi Calm Calm - N/A   Clear
12:54 PM 57.0 °F - 42.1 °F 57% 30.10 in 10.0 mi Variable 6.9 mph - N/A   Clear
1:54 PM 57.9 °F - 39.0 °F 49% 30.06 in 10.0 mi ESE 8.1 mph - N/A   Clear
2:54 PM 57.9 °F - 42.1 °F 56% 30.05 in 10.0 mi Variable 5.8 mph - N/A   Overcast
3:44 PM 57.0 °F - 46.0 °F 67% 30.01 in 10.0 mi ESE 8.1 mph 21.9 mph N/A   Overcast
3:54 PM 57.0 °F - 46.0 °F 67% 30.01 in 10.0 mi ESE 11.5 mph - N/A   Overcast
4:54 PM 55.9 °F - 46.0 °F 69% 30.02 in 10.0 mi SSE 5.8 mph - N/A   Overcast
5:54 PM 55.0 °F - 45.0 °F 69% 30.01 in 10.0 mi Calm Calm - N/A   Overcast
6:54 PM 54.0 °F - 46.9 °F 77% 30.01 in 10.0 mi SE 5.8 mph - 0.00 in Rain Light Rain
7:54 PM 53.1 °F - 46.9 °F 80% 30.00 in 10.0 mi East 6.9 mph - 0.00 in Rain Light Rain
8:54 PM 51.1 °F - 50.0 °F 96% 29.99 in 5.0 mi Calm Calm - 0.00 in Rain Light Rain
9:54 PM 50.0 °F - 50.0 °F 100% 29.95 in 9.0 mi Calm Calm - 0.01 in Rain Light Rain
10:54 PM 50.0 °F - 50.0 °F 100% 29.94 in 4.0 mi Calm Calm - N/A Rain Rain
11:34 PM 50.0 °F - 50.0 °F 100% 29.91 in 3.0 mi Calm Calm - N/A Rain Rain
11:42 PM 50.0 °F - 50.0 °F 100% 29.91 in 2.0 mi Calm Calm - N/A Rain Heavy Rain
11:54 PM 50.0 °F - 50.0 °F 100% 29.92 in 2.5 mi Calm Calm - N/A Rain Rain